Regional Weather Roundup
Issued by NWS Sioux Falls, SD

Home | Current Version | Previous Version | Graphics & Text | Print | Product List | Glossary Off
Versions: 1 2 3 4 5 6 7 8 9 10 11 12 13 14 15 16 17 18 19 20 21 22 23 24 25 26 27 28 29 30 31 32 33 34 35 36 37 38 39 40 41 42 43 44 45 46 47 48 49 50

000
ASUS43 KFSD 310702
RWRFSD

WEATHER ROUNDUP FOR SE SOUTH DAKOTA/SW MINNESOTA/NW IOWA
NATIONAL WEATHER SERVICE SIOUX FALLS SD
200 AM CDT TUE MAY 31 2016

NOTE: "FAIR" INDICATES FEW OR NO CLOUDS BELOW 12,000 FEET WITH NO
SIGNIFICANT WEATHER AND OR OBSTRUCTIONS TO VISIBILITY.


SDZ038>040-050-052>070-310800-
SOUTHEAST SOUTH DAKOTA

CITY           SKY/WX    TMP DP  RH WIND       PRES   REMARKS
BROOKINGS      CLOUDY    62  59  90 S10       29.81F
CHAMBERLAIN    NOT AVBL
HURON          MOCLDY    59  56  89 W9        29.83R
MADISON        RAIN      61  61 100 W12       29.84F
MITCHELL       CLOUDY    63  59  87 W6        29.84R
SIOUX FALLS    LGT RAIN  62  58  86 W6        29.82S
WINNER         FAIR      58  53  84 NW17G26   29.89F
YANKTON        CLOUDY    63  57  82 CALM      29.85R
$$

MNZ071-072-080-081-089-090-097-098-310800-
SOUTHWEST MINNESOTA

CITY           SKY/WX    TMP DP  RH WIND       PRES   REMARKS
FAIRMONT       CLOUDY    66  55  68 S17       29.86S
JACKSON        CLOUDY    63  55  77 SE13      29.86F
LUVERNE        RAIN      61  55  82 W5        29.84F
MARSHALL       LGT RAIN  64  60  87 S20G26    29.83R
MONTEVIDEO     CLOUDY    64  59  82 NW7       29.86R
PIPESTONE      LGT RAIN  61  57  88 SW5       29.85S
REDWOOD FALLS  RAIN      64  60  87 S16       29.81F FOG
TRACY          TSTM      64  62  92 W5G22     29.87R
WINDOM         CLOUDY    63  57  82 SE13G22   29.85F
WORTHINGTON    CLOUDY    64  59  83 SE16      29.82F
$$

IAZ001>003-012>014-020>022-031-032-NEZ013-014-SDZ071-310800-
NORTHWEST IOWA

CITY           SKY/WX    TMP DP  RH WIND       PRES   REMARKS
ESTHERVILLE    CLOUDY    64  57  78 SE16      29.86F
SIOUX CITY     CLOUDY    71  61  70 W10G24    29.86R
SPENCER        CLOUDY    65  57  75 S12       29.84F THUNDER
STORM LAKE     CLOUDY    64  57  77 SE9G15    29.88F
$$

ABBREVIATIONS USED IN REMARKS
   TC - TEMPERATURE IN CELSIUS
  WCI - WIND CHILL INDEX
   HX - HEAT INDEX
  VSB - VISIBILITY





USA.gov is the U.S. government's official web portal to all federal, state and local government web resources and services.